STARLINK-4152

operational
NORAD ID: 53136 Int'l Des: 2022-083 Owner: SPXS Country: US Constellation: starlink
LEOCIRCULAR

About STARLINK-4152

Description loading...

Live Position

Loading 3D Globe...

Upcoming Passes

Altitude History

Altitude vs Time

uPlot chart will show altitude changes over time

Two-Line Element Set

1 53136U 22083E 25251.45191248 -.00000037 00000-0 15765-4 0 9991
2 53136 53.2165 272.2205 0001289 91.0036 269.1104 15.08840816174692
Epoch: Sep 8, 2025 • Age: 16 hours

Current Status

Altitude 545.4 km
Velocity 7.60 km/s
Sub-Earth Point 53.12°N, 29°W
Launch Date Jul 17, 2022
Age 3.1 years
Type internet

Technical Details

Classification Payload
Mass 297.00 kg
Dry Mass 275.00 kg
Total Mass 297.00 kg
Length 0.20 m
Diameter 2.80 m
Span 9.00 m
Shape Box + pan
Manufacturer SPXS
Bus Type Starlink
Phase Status In Orbit
Owner/State SPXS/US

Large Constellations

Loading constellations...